This demonstration page uses our WeatherBlox Daily Observations layout. Learn more.

Left ArrowRight Arrow

41.86663, -103.66717

Hourly Observations for April 22, 2017

Temp ( °F °C ) Dew Point ( °F °C ) Humidity (%) Winds ( mph kmh ) Pressure ( in mb ) Visibility ( mi km ) Precip ( " mm )
12:53 am 00:53 Clear 40 4.4 36 2.2 86 86 NE 3 6 30.24 1024 10 16.0934 N/A
1:53 am 01:53 Clear 39 3.9 35 1.7 86 86 N 5 7 30.24 1024 10 16.0934 N/A
2:53 am 02:53 Mostly Clear 36 2.2 34 1.1 93 93 SE 6 9 30.26 1025 10 16.0934 N/A
3:53 am 03:53 Mostly Cloudy 36 2.2 33 0.6 89 89 E 6 9 30.26 1025 10 16.0934 N/A
4:53 am 04:53 Clear 35 1.7 32 undefined 89 89 E 6 9 30.27 1025 10 16.0934 N/A
5:53 am 05:53 Clear 33 0.6 30 -1.1 89 89 ESE 3 6 30.29 1026 10 16.0934 N/A
6:53 am 06:53 Sunny 35 1.7 33 0.6 93 93 N N/A 30.3 1026 9 14.48406 N/A
7:53 am 07:53 Sunny 42 5.6 37 2.8 82 82 ESE 3 6 30.29 1026 10 16.0934 N/A
8:53 am 08:53 Sunny 46 7.8 38 3.3 73 73 SSE 6 9 30.29 1026 10 16.0934 N/A
9:53 am 09:53 Sunny 50 10 38 3.3 63 63 SE 8 13 30.28 1025 10 16.0934 N/A
10:53 am 10:53 Mostly Sunny 54 12.2 36 2.2 51 51 S 9 15 30.27 1025 10 16.0934 N/A
11:53 am 11:53 Mostly Cloudy 58 14.4 34 1.1 41 41 SE 7 11 30.25 1024 10 16.0934 N/A
12:53 pm 12:53 Cloudy 57 13.9 34 1.1 42 42 WSW 6 9 30.23 1024 10 16.0934 N/A
1:53 pm 13:53 Mostly Cloudy 60 15.6 32 undefined 35 35 VRB 7 11 30.2 1023 10 16.0934 N/A
2:53 pm 14:53 Partly Cloudy 59 15 29 -1.7 32 32 WSW 3 6 30.19 1023 10 16.0934 N/A
3:53 pm 15:53 Mostly Sunny 62 16.7 28 -2.2 28 28 WSW 3 6 30.17 1022 10 16.0934 N/A
4:53 pm 16:53 Partly Cloudy 61 16.1 28 -2.2 29 29 S 15 24 30.17 1022 10 16.0934 N/A
5:53 pm 17:53 Sunny 62 16.7 27 -2.8 26 26 SW 12 19 30.16 1021 10 16.0934 N/A
6:53 pm 18:53 Sunny 59 15 27 -2.8 29 29 SSW 13 20 30.14 1021 10 16.0934 N/A
7:53 pm 19:53 Clear 54 12.2 29 -1.7 38 38 S 7 11 30.13 1020 10 16.0934 N/A
8:53 pm 20:53 Clear 50 10 29 -1.7 44 44 SSE 9 15 30.13 1020 10 16.0934 N/A
9:53 pm 21:53 Clear 49 9.4 30 -1.1 48 48 S 9 15 30.13 1020 10 16.0934 N/A
10:53 pm 22:53 Clear 47 8.3 31 -0.6 54 54 S 9 15 30.1 1019 10 16.0934 N/A
11:53 pm 23:53 Clear 45 7.2 30 -1.1 56 56 SSE 9 15 30.07 1018 10 16.0934 N/A

Powered by AerisWeather